CAPE
313 345 465 430 6 44 67 62 78 112 194 363 627 688 498 561 417 99 601 580 900 1137 1507 1806 2398 2343 2158 2292 2040 2288 2038 1876 2002 1940 2093 1908 1908 2000 1919 1655 1652 1725 2145 2284 2281 2395 2051 2037 1960
450 574 528 93 0 62 81 135 94 84 322 593 504 437 482 416 360 422 496 678 930 1049 1207 1643 2249 2301 2032 2094 1991 2489 1767 1728 1799 1887 2043 1985 1984 1730 1636 1701 1786 1721 1642 1539 2106 2114 2188 2164 1949
504 811 678 24 0 0 14 29 61 71 95 196 252 219 403 241 392 355 451 639 660 813 1203 1405 2112 2220 1631 1854 1747 2297 1445 1186 1409 1703 1415 1864 1608 1571 1532 1931 2009 1739 1413 1581 1877 1917 1957 1961 1700
685 966 264 25 21 10 1 37 36 112 147 182 204 171 388 445 315 344 406 317 599 746 843 1639 1585 1467 1531 1700 1573 1354 1083 1322 1368 1602 1518 1572 738 1324 1796 2180 2156 1515 1304 1420 1873 1832 1604 1617 1669
860 649 124 58 72 57 42 70 214 234 139 301 199 338 452 527 415 382 279 400 639 1056 1120 1236 2177 2198 1989 1684 1501 1483 1439 1354 1274 1049 602 724 979 1472 1895 1772 1601 1602 1586 1494 1433 1623 1552 1851 1372
750 171 68 65 47 9 75 182 140 281 317 197 247 199 428 362 268 328 390 473 538 637 878 1111 1571 2008 1951 1834 1682 1446 1420 1371 817 530 770 832 706 1005 1427 1826 1694 1668 1622 1287 1355 1568 1585 1435 1329
195 243 111 100 72 37 123 167 225 175 204 486 234 204 496 387 238 366 502 509 606 789 945 1132 1086 1292 1501 1342 1178 1000 1270 1107 327 266 362 548 679 680 1510 1806 1683 1555 1428 1196 1161 1260 1122 1239 1242
294 308 119 48 174 261 161 0 45 27 451 352 104 114 420 486 367 292 311 328 444 710 952 1093 1223 1091 1025 1011 1265 909 909 1229 297 103 125 344 507 683 978 1805 1774 1261 1288 1227 1332 1314 1432 1352 1700
244 290 123 108 373 234 122 42 184 498 571 435 269 103 221 464 383 337 300 259 146 130 105 129 420 260 132 290 614 923 992 1236 679 375 234 128 92 227 671 1618 1863 1492 1323 1331 1583 1690 1713 1499 511
422 291 231 262 273 476 377 196 206 103 465 451 319 143 161 249 220 221 229 145 147 145 115 88 330 358 306 410 449 371 410 478 321 56 69 62 71 217 590 1074 1984 2094 1735 1893 1814 1858 1452 711 63
96 260 500 769 388 372 339 279 202 112 236 433 283 171 127 133 178 206 238 165 153 196 206 414 536 496 395 249 231 161 121 123 29 8 33 11 42 75 321 572 742 1755 1837 1516 1098 857 71 118 96
150 500 635 877 699 595 472 433 358 207 89 414 305 189 184 152 154 167 152 173 166 295 490 469 480 470 298 160 132 62 2 0 3 19 20 0 50 260 274 363 468 985 877 695 695 174 178 328 277
366 631 911 970 687 516 514 532 519 183 372 495 282 176 69 68 137 177 115 144 219 284 525 413 482 452 183 84 29 9 0 1 2 4 58 83 164 207 271 329 343 457 505 506 481 336 398 638 533
154 742 639 889 974 649 544 490 420 351 230 228 308 122 85 161 108 78 108 95 155 335 416 316 427 393 54 8 0 0 2 3 5 29 98 134 89 149 280 361 435 504 539 699 404 323 323 112 217
137 247 260 627 812 752 633 568 613 602 317 315 130 196 79 34 59 53 89 73 151 283 355 196 311 168 0 0 0 0 0 1 0 37 45 84 97 163 228 309 369 519 839 859 818 388 42 6 47
120 108 142 743 973 952 578 118 685 397 150 132 331 294 189 104 129 106 77 97 189 212 323 288 233 56 0 0 0 0 0 4 35 19 62 103 173 232 387 948 862 1204 1016 864 745 235 1 26 0
19 6 30 935 1054 794 505 541 113 37 72 38 47 232 301 179 140 113 18 0 54 236 377 370 229 0 0 0 0 0 0 0 66 98 82 222 271 388 716 1069 1600 1106 561 840 595 254 422 245 159
71 49 35 666 1050 905 569 401 69 84 159 63 316 95 145 184 53 66 4 39 68 69 218 324 182 128 48 0 0 0 0 32 37 48 245 303 268 601 836 1388 1443 1462 1598 1178 753 580 599 598 256
95 56 34 35 1127 913 918 589 110 177 89 257 36 58 170 20 23 30 10 0 0 50 50 30 127 139 5 162 108 45 143 126 104 180 228 526 687 785 1099 1096 1435 1434 1317 1064 1096 872 884 482 536
20 85 61 214 1086 714 421 81 341 320 324 7 14 67 235 98 25 38 33 0 0 6 0 44 172 47 49 103 116 219 198 124 107 205 417 1061 1265 883 1111 902 1389 1098 771 557 1077 1226 1102 627 711
62 54 6 245 666 448 417 45 59 325 434 338 107 170 91 79 68 59 62 23 0 0 39 95 104 146 98 44 82 160 156 63 134 438 561 807 1233 857 840 1319 1170 996 372 597 1013 1310 977 605 264
43 5 0 12 40 27 76 9 0 5 223 182 97 73 68 221 158 120 109 127 36 5 34 64 81 13 0 15 67 99 31 61 175 286 72 615 978 857 655 1338 1114 1310 1099 375 961 1543 1185 1066 945
0 0 0 0 49 147 19 0 24 64 36 2 21 60 36 204 248 239 229 211 191 91 98 65 55 5 0 0 50 293 28 7 18 218 396 595 1007 896 585 1234 1353 763 1268 1331 1395 1262 1017 1451 971
0 0 0 0 0 0 0 0 2 70 39 26 0 243 192 127 232 283 343 293 328 252 71 183 101 36 0 16 15 233 62 25 262 927 712 814 1085 1226 842 849 1532 1295 1472 1583 1289 1487 1130 1709 1356
0 0 0 0 0 0 0 0 1 30 39 21 14 15 211 239 155 224 421 358 382 381 103 199 225 219 52 0 12 209 416 173 282 585 757 824 980 1109 1064 1077 1220 1382 1672 1561 1508 1215 1415 1298 1161
0 0 0 0 0 0 0 0 6 44 126 178 168 130 193 284 327 262 260 410 300 371 181 104 249 219 223 217 241 481 560 502 333 494 373 565 733 627 695 918 1280 1450 1403 1526 1482 1443 1183 1664 1196
0 0 0 0 0 0 0 40 62 93 104 34 142 234 246 317 389 361 316 400 341 289 313 233 132 144 2 242 429 621 626 997 787 602 596 441 215 43 652 746 1543 1445 1583 1502 1208 1451 1477 1129 1120
0 0 0 0 0 0 1 32 150 183 139 67 23 265 368 404 607 376 424 407 351 346 624 411 257 161 51 11 565 483 616 853 957 658 359 827 934 914 854 552 950 909 1064 1421 1577 1570 1279 1065 940
0 0 0 0 0 0 0 0 20 218 216 6 24 179 290 601 660 578 461 474 390 377 447 550 450 339 279 54 421 493 393 606 733 852 987 1283 1071 1179 856 633 513 433 531 1062 1558 1539 1272 1192 1260
0 0 0 0 0 0 0 0 10 182 222 7 133 279 382 765 848 646 495 498 416 477 358 590 524 414 427 282 362 474 459 724 819 758 766 1108 1342 1261 822 611 536 486 396 369 1418 1364 1364 1184 1074
CIN
-44 -31 -65 -126 -19 -21 -26 -22 -5 -11 -50 -56 -82 -82 -135 -101 -74 -96 -46 -60 -29 -1 -1 -0 -0 -0 -0 -0 -0 -0 -0 -3 -0 -0 -0 -2 -5 -7 -4 -7 -4 -3 -0 -1 -0 -0 -0 -0 -4
-27 -37 -73 -83 -2 -6 -22 -49 -46 -47 -53 -67 -70 -79 -103 -105 -127 -109 -56 -37 -36 -9 -3 -1 -0 -0 -0 -0 -0 -0 -0 -1 -0 -0 -0 -0 -0 -3 -0 -0 -0 -1 -5 -1 -0 -0 -0 -0 -0
-65 -66 -62 -127 -0 -0 -3 -17 -36 -19 -14 -58 -72 -95 -111 -166 -113 -113 -101 -64 -40 -23 -2 -1 -0 -0 -0 -0 -0 -0 -3 -26 -16 -0 -3 -0 -2 -1 -2 -0 -0 -0 -1 -2 -0 -0 -0 -0 -0
-56 -49 -82 -8 -10 -8 -27 -74 -44 -130 -77 -73 -144 -96 -71 -47 -90 -109 -112 -120 -52 -23 -8 -0 -0 -0 -0 -0 -0 -5 -20 -12 -6 -1 -2 -0 -18 -6 -0 -0 -0 -0 -0 -1 -0 -0 -0 -0 -0
-70 -43 -45 -23 -8 -20 -57 -95 -100 -123 -78 -56 -136 -103 -62 -14 -6 -82 -94 -96 -70 -2 -1 -1 -0 -0 -0 -0 -2 -14 -6 -8 -10 -17 -42 -30 -14 -1 -0 -0 -1 -0 -0 -0 -1 -0 -0 -0 -1
-50 -35 -26 -12 -59 -63 -68 -111 -141 -104 -40 -128 -140 -109 -43 -20 -24 -73 -87 -99 -90 -74 -22 -4 -0 -0 -0 -0 -0 -5 -3 -2 -22 -44 -29 -24 -27 -24 -1 -0 -1 -0 -0 -4 -5 -0 -3 -8 -7
-36 -26 -20 -23 -75 -0 -101 -172 -103 -77 -39 -36 -99 -91 -15 -25 -10 -79 -57 -102 -84 -52 -24 -2 -5 -0 -0 -0 -0 -1 -2 -5 -28 -57 -44 -29 -33 -48 -2 -0 -0 -0 -0 -18 -34 -2 -6 -3 -4
-81 -29 -18 -57 -41 -61 -126 -0 -55 -41 -22 -58 -157 -107 -27 -18 -39 -4 -30 -19 -65 -43 -29 -20 -1 -1 -14 -1 -0 -8 -24 -10 -43 -63 -69 -29 -45 -39 -28 -4 -0 -4 -12 -20 -25 -1 -1 -7 -12
-88 -43 -28 -14 -37 -14 -105 -102 -17 -28 -41 -55 -95 -141 -95 -22 -23 -15 -22 -38 -79 -118 -146 -117 -55 -66 -82 -44 -11 -0 -9 -4 -17 -51 -51 -72 -124 -96 -48 -4 -2 -10 -17 -12 -8 -0 -2 -11 -75
-47 -39 -19 -18 -13 -45 -47 -67 -34 -16 -71 -101 -127 -105 -108 -47 -24 -72 -63 -70 -88 -117 -140 -141 -77 -50 -41 -39 -19 -32 -38 -15 -31 -105 -80 -108 -129 -115 -62 -31 -0 -0 -3 -4 -5 -5 -8 -19 -33
-27 -13 -60 -21 -16 -8 -13 -27 -38 -50 -66 -105 -127 -117 -79 -80 -25 -72 -79 -69 -98 -88 -94 -68 -34 -20 -22 -51 -58 -72 -62 -35 -65 -76 -100 -160 -149 -131 -56 -60 -65 -14 -17 -32 -44 -31 -203 -150 -200
-7 -48 -35 -49 -37 -26 -6 -15 -17 -91 -122 -102 -106 -123 -94 -81 -74 -35 -76 -109 -85 -45 -55 -51 -45 -24 -53 -82 -49 -45 -6 -1 -63 -101 -95 -0 -57 -47 -73 -93 -57 -45 -59 -87 -66 -69 -41 -89 -209
-33 -35 -31 -68 -53 -58 -33 -38 -23 -49 -79 -80 -77 -80 -101 -117 -81 -49 -87 -84 -61 -77 -60 -58 -40 -21 -57 -70 -106 -130 -39 -26 -88 -77 -97 -21 -35 -53 -103 -94 -49 -48 -85 -92 -88 -146 -85 -126 -152
-30 -55 -72 -74 -77 -46 -48 -43 -42 -70 -72 -63 -90 -93 -95 -78 -59 -88 -94 -45 -84 -87 -83 -68 -45 -21 -55 -122 -0 -0 -40 -60 -136 -115 -114 -92 -85 -44 -103 -81 -29 -48 -25 -51 -169 -143 -31 -142 -211
-120 -137 -155 -114 -97 -52 -59 -32 -53 -93 -106 -42 -64 -56 -74 -64 -123 -56 -78 -61 -108 -119 -72 -66 -38 -24 -0 -0 -0 -0 -0 -36 -0 -41 -51 -97 -25 -20 -30 -46 -7 -30 -30 -56 -61 -34 -21 -9 -13
-146 -144 -43 -108 -116 -64 -58 -71 -157 -111 -28 -45 -36 -35 -57 -54 -71 -38 -71 -115 -77 -89 -99 -50 -27 -45 -0 -0 -0 -0 -128 -204 -126 -105 -154 -15 -19 -43 -41 -22 -19 -40 -21 -33 -39 -35 -58 -15 -0
-53 -32 -85 -107 -124 -62 -100 -108 -287 -225 -84 -96 -8 -41 -26 -31 -40 -48 -33 -0 -134 -76 -67 -31 -23 -0 -0 -0 -0 -0 -0 -8 -96 -109 -129 -49 -23 -24 -26 -51 -36 -26 -23 -20 -33 -30 -15 -25 -36
-125 -134 -78 -79 -136 -78 -107 -108 -91 -80 -116 -128 -95 -80 -26 -35 -59 -58 -44 -106 -96 -115 -76 -34 -36 -60 -82 -0 -0 -0 -0 -140 -94 -60 -69 -87 -54 -24 -34 -61 -26 -37 -45 -28 -29 -29 -32 -42 -124
-101 -51 -46 -117 -120 -92 -53 -58 -296 -139 -259 -234 -108 -40 -91 -17 -43 -49 -95 -0 -0 -139 -136 -86 -54 -63 -24 -33 -52 -64 -30 -63 -123 -26 -29 -121 -53 -18 -41 -54 -39 -39 -30 -21 -34 -38 -48 -61 -44
-89 -155 -130 -31 -68 -54 -82 -52 -241 -197 -244 -37 -90 -79 -87 -69 -85 -157 -105 -1 -0 -89 -0 -129 -51 -110 -99 -56 -80 -57 -65 -58 -85 -30 -49 -42 -35 -26 -41 -51 -27 -23 -26 -27 -21 -36 -19 -78 -78
-23 -86 -14 -35 -42 -197 -262 -87 -283 -170 -171 -133 -72 -117 -55 -54 -156 -180 -262 -119 -0 -0 -225 -125 -86 -48 -47 -95 -81 -65 -45 -42 -65 -74 -18 -15 -14 -17 -34 -53 -27 -30 -33 -57 -25 -37 -26 -20 -61
-32 -3 -0 -1 -85 -72 -138 -91 -72 -211 -196 -180 -97 -85 -57 -17 -50 -189 -155 -153 -147 -35 -232 -185 -134 -52 -0 -104 -98 -58 -65 -52 -25 -53 -158 -13 -25 -12 -50 -40 -40 -32 -37 -29 -45 -40 -17 -27 -48
-0 -0 -0 -0 -122 -137 -147 -4 -7 -399 -332 -5 -96 -97 -80 -47 -55 -219 -160 -182 -149 -104 -257 -228 -194 -64 -0 -0 -94 -33 -58 -33 -69 -80 -92 -14 -21 -10 -42 -18 -22 -22 -45 -39 -29 -25 -47 -35 -32
-0 -0 -0 -0 -0 -0 -0 -0 -2 -179 -120 -94 -0 -98 -79 -117 -75 -236 -249 -198 -161 -94 -230 -187 -204 -154 -0 -148 -57 -55 -51 -64 -63 -31 -35 -38 -41 -45 -58 -31 -24 -21 -24 -20 -28 -34 -40 -19 -29
-0 -0 -0 -0 -0 -0 -0 -0 -6 -22 -149 -75 -173 -355 -171 -130 -142 -91 -222 -226 -174 -134 -150 -190 -157 -178 -125 -4 -25 -60 -46 -93 -34 -21 -21 -22 -25 -23 -27 -39 -45 -42 -19 -24 -13 -26 -28 -34 -14
-0 -0 -0 -0 -0 -0 -0 -1 -12 -297 -294 -450 -95 -88 -192 -128 -145 -118 -107 -234 -224 -155 -145 -243 -191 -160 -161 -175 -139 -53 -65 -67 -107 -33 -32 -20 -17 -24 -36 -31 -45 -41 -30 -26 -21 -32 -48 -23 -31
-0 -0 -0 -0 -0 -0 -2 -63 -151 -228 -160 -174 -130 -90 -86 -92 -123 -156 -109 -251 -250 -182 -309 -261 -250 -196 -336 -204 -135 -60 -74 -42 -46 -46 -43 -34 -47 -49 -4 -50 -64 -26 -39 -23 -26 -22 -19 -36 -41
-0 -0 -0 -0 -0 -0 -0 -53 -35 -199 -67 -44 -70 -67 -94 -79 -91 -130 -91 -44 -50 -259 -290 -258 -194 -215 -307 -194 -148 -106 -101 -60 -48 -52 -34 -82 -24 -21 -33 -59 -29 -17 -18 -32 -27 -19 -16 -33 -32
-0 -0 -0 -0 -0 -0 -0 -0 -37 -124 -66 -91 -77 -101 -71 -44 -86 -83 -118 -57 -69 -33 -270 -263 -235 -212 -234 -293 -199 -150 -167 -121 -71 -73 -94 -40 -47 -33 -32 -20 -24 -35 -38 -18 -21 -13 -16 -30 -24
-0 -0 -0 -0 -0 -0 -0 -0 -49 -120 -78 -83 -33 -23 -17 -32 -60 -26 -84 -87 -85 -60 -46 -298 -247 -233 -218 -231 -232 -197 -187 -145 -112 -126 -121 -66 -33 -28 -6 -17 -26 -15 -21 -38 -20 -23 -35 -29 -41
Wind_Speed
1 3 7 7 nan nan nan nan nan 7 8 7 15 17 14 9 4 nan 13 16 17 13 13 15 19 19 13 19 13 11 12 13 15 16 13 12 12 12 16 14 14 13 11 5 5 7 7 8 9
4 2 7 nan nan nan nan 20 nan nan 15 20 13 14 11 6 11 17 13 16 17 16 11 12 19 18 18 21 10 8 10 14 14 15 15 14 14 14 18 15 16 13 11 6 7 9 10 12 10
6 3 5 nan nan nan nan nan nan nan nan 8 10 9 9 11 16 15 14 18 15 15 12 14 21 23 24 21 16 10 8 12 15 16 17 19 18 20 18 20 17 18 8 7 11 10 12 13 11
1 5 6 nan nan nan nan nan nan 14 7 5 16 13 10 9 14 15 23 20 19 16 14 17 20 22 25 16 16 13 13 16 18 22 21 19 20 19 17 21 19 16 8 9 11 10 13 14 12
4 5 7 nan nan nan nan nan 7 15 12 11 9 7 8 8 19 23 24 19 21 16 16 17 23 23 22 20 19 21 18 17 19 21 22 18 20 17 21 19 18 14 10 9 7 9 13 12 10
9 3 nan nan nan nan nan 7 14 17 16 17 16 15 5 12 18 16 23 20 18 17 14 12 21 22 21 19 16 13 17 17 17 20 20 17 18 16 22 18 19 13 11 6 5 11 13 8 6
7 8 8 9 nan nan 15 15 14 16 17 11 19 10 9 10 11 15 18 22 19 16 12 9 10 13 20 16 20 21 20 18 17 17 19 18 16 15 14 13 17 12 8 9 10 7 8 6 5
9 6 7 nan 10 5 12 nan nan nan 7 18 22 13 13 16 17 12 15 14 14 12 8 8 6 8 8 12 13 14 9 17 16 15 17 14 15 11 10 16 11 4 5 11 8 2 4 1 6
4 9 5 8 11 8 10 nan 8 18 15 11 12 14 21 25 19 15 16 10 7 6 5 6 7 7 7 5 10 8 4 13 10 15 15 16 nan 9 12 10 2 2 8 8 5 6 1 13 9
4 2 7 12 13 11 12 16 11 14 13 15 23 23 23 25 22 17 19 13 5 5 3 nan 7 8 8 6 8 13 15 16 19 nan nan nan nan 12 15 11 6 7 9 8 5 7 10 16 nan
nan 7 9 7 13 14 15 16 14 13 11 11 29 23 27 24 19 18 15 15 10 5 2 3 6 7 9 7 7 12 23 21 nan nan nan nan nan nan 15 9 7 5 5 6 6 5 nan 12 nan
4 14 13 17 15 12 10 15 10 16 nan 21 28 28 30 23 19 19 17 12 8 6 2 3 4 6 7 2 3 nan nan nan nan nan nan nan nan 14 14 9 7 7 6 8 7 1 5 13 21
9 12 15 18 14 11 11 14 9 13 18 21 24 25 nan nan 18 15 14 13 11 9 7 7 7 6 4 nan nan nan nan nan nan nan nan nan 12 16 14 10 6 7 8 4 9 3 11 11 20
7 10 9 12 18 16 12 13 11 10 11 13 17 20 nan 20 18 nan 17 nan 13 11 9 8 6 6 nan nan nan nan nan nan nan nan nan 11 nan 16 13 12 8 6 5 6 6 10 4 10 10
6 6 8 14 20 19 18 10 5 7 5 10 15 17 nan nan nan nan nan nan 16 11 8 8 9 5 nan nan nan nan nan nan nan nan nan nan nan 15 16 13 7 2 6 3 3 4 nan nan nan
13 4 8 12 21 24 24 20 20 25 16 14 4 9 14 17 18 17 nan nan 12 12 14 12 11 nan nan nan nan nan nan nan nan nan nan 13 13 14 15 10 6 5 6 8 7 5 nan nan nan
nan nan nan 17 27 25 25 31 26 nan nan nan nan 5 10 8 9 11 nan nan nan 10 10 10 9 nan nan nan nan nan nan nan nan nan nan 15 15 14 12 9 8 5 8 6 4 6 1 3 6
nan nan nan 21 34 27 22 25 nan nan 23 nan 5 nan 5 7 nan nan nan nan nan nan 12 10 7 6 nan nan nan nan nan nan nan nan 8 12 11 11 7 10 10 6 5 8 9 7 6 2 5
nan nan nan nan 27 20 22 26 26 29 nan 21 nan nan 1 nan nan nan nan nan nan nan nan nan 8 6 nan 13 15 nan 10 10 9 2 8 10 8 6 9 10 11 6 10 5 2 4 6 4 11
nan nan nan 21 37 26 27 nan 21 22 28 nan nan nan 5 nan nan nan nan nan nan nan nan nan 7 nan nan 12 11 9 11 11 11 10 11 15 9 10 8 11 7 4 5 7 5 1 3 2 4
nan nan nan 24 24 21 23 nan nan 18 26 26 19 10 nan nan nan nan nan nan nan nan nan nan 8 6 nan nan nan 13 10 nan 9 11 9 13 12 10 11 10 4 4 8 6 10 4 4 4 3
nan nan nan nan nan nan nan nan nan nan 21 17 nan nan nan 9 16 18 14 10 nan nan nan nan nan nan nan nan nan nan nan nan 8 7 nan 13 11 8 9 7 3 1 2 7 10 6 1 6 2
nan nan nan nan nan 17 nan nan nan nan nan nan nan nan nan 16 14 19 18 15 12 nan nan nan nan nan nan nan nan 4 nan nan nan 15 13 8 10 9 6 3 3 2 2 4 3 2 2 6 11
nan nan nan nan nan nan nan nan nan nan nan nan nan 16 11 13 18 19 16 16 13 12 nan 8 10 nan nan nan nan 2 nan nan 16 11 11 13 13 12 7 6 2 2 3 2 2 1 2 2 5
nan nan nan nan nan nan nan nan nan nan nan nan nan nan 20 19 10 11 22 19 16 14 9 11 11 9 nan nan nan 1 3 8 10 10 9 11 14 11 8 7 5 5 5 3 4 2 4 9 7
nan nan nan nan nan nan nan nan nan nan 25 24 22 21 16 13 16 18 22 21 19 17 13 10 14 11 10 9 6 1 2 7 11 8 7 4 14 14 14 9 2 4 6 5 5 5 4 6 9
nan nan nan nan nan nan nan nan nan nan 16 nan 15 28 25 17 17 21 26 23 19 17 18 14 14 10 nan 10 7 4 4 6 9 7 9 8 11 nan 9 8 8 8 9 7 5 6 4 4 8
nan nan nan nan nan nan nan nan 17 19 21 nan nan 10 19 19 15 16 21 25 23 21 17 11 11 12 nan nan 8 4 5 6 9 8 9 8 8 8 10 12 8 12 11 9 5 7 7 6 11
nan nan nan nan nan nan nan nan nan 29 25 nan nan 18 14 24 25 21 17 20 24 23 16 13 11 10 11 nan 9 8 5 7 10 8 9 12 12 11 10 8 10 11 11 10 8 8 10 9 11
nan nan nan nan nan nan nan nan nan 15 20 nan 15 18 25 25 26 24 23 21 18 22 18 15 11 9 11 10 12 11 8 6 7 5 7 8 9 11 9 11 12 11 11 9 8 9 10 10 10
Wind_Direction
195 158 158 164 nan nan nan nan nan 316 281 280 271 286 292 217 241 nan 293 300 295 298 294 292 296 303 278 263 263 289 306 305 301 295 291 302 306 310 322 303 282 270 289 307 287 293 289 293 311
166 243 197 nan nan nan nan 168 nan nan 296 288 282 273 248 251 243 279 272 298 300 293 275 274 295 286 292 291 289 271 303 298 295 300 289 292 302 311 314 302 287 267 267 276 288 286 305 328 337
184 214 226 nan nan nan nan nan nan nan nan 323 310 268 272 282 286 287 295 295 289 280 279 293 294 289 298 287 298 312 279 293 299 293 284 286 293 303 286 297 276 263 264 300 280 298 332 325 327
323 240 241 nan nan nan nan nan nan 122 80 285 317 280 272 292 305 298 300 291 282 286 290 298 299 296 304 284 293 293 292 291 296 297 288 282 288 298 291 288 273 257 272 255 287 331 330 342 344
171 266 284 nan nan nan nan nan 106 110 83 1 326 277 253 231 283 294 292 299 293 283 287 295 307 297 294 281 283 292 283 289 296 300 296 281 284 278 284 282 262 259 268 269 308 348 349 26 11
226 268 nan nan nan nan nan 169 113 76 18 339 298 294 268 306 294 297 298 301 290 293 297 305 313 299 291 279 287 276 283 286 285 288 283 280 284 273 281 280 256 258 267 279 342 11 44 47 42
268 260 311 319 nan nan 11 11 32 52 16 338 320 305 318 317 306 302 301 301 295 283 282 283 304 332 315 279 273 269 271 274 272 273 270 268 279 275 272 265 247 262 284 323 32 32 70 62 64
297 282 262 nan 324 359 334 nan nan nan 302 307 326 349 360 351 333 315 301 294 287 288 287 286 307 303 316 248 276 295 230 285 261 250 261 256 262 278 274 230 240 287 342 2 37 60 92 134 346
116 275 352 14 351 5 331 nan 286 279 296 300 312 340 331 335 334 329 318 308 305 286 286 308 335 346 341 274 259 306 243 257 246 229 262 227 nan 231 229 221 237 56 46 34 80 105 43 312 140
75 301 29 9 352 357 313 340 297 305 290 285 294 306 322 331 335 342 339 325 356 334 346 nan 334 336 325 299 298 241 195 214 207 nan nan nan nan 218 216 190 102 61 83 93 117 86 282 325 nan
nan 37 4 338 1 347 332 339 322 292 278 307 323 327 336 340 342 349 349 338 356 346 298 337 326 316 334 339 286 234 199 201 nan nan nan nan nan nan 194 161 160 233 136 214 247 229 nan 333 nan
100 51 18 7 351 349 341 310 321 295 nan 330 324 312 338 344 339 352 358 343 329 345 287 291 314 311 344 33 343 nan nan nan nan nan nan nan nan 199 170 157 168 236 227 175 204 265 57 30 52
59 53 36 359 340 2 12 325 357 299 307 329 329 329 nan nan 346 357 351 340 339 343 326 310 310 314 344 nan nan nan nan nan nan nan nan nan 193 169 163 147 180 238 267 240 232 309 72 63 65
98 78 61 27 15 18 10 357 341 329 314 345 329 342 nan 341 347 nan 358 nan 353 346 347 306 299 296 nan nan nan nan nan nan nan nan nan 180 nan 158 150 167 183 262 271 293 58 130 73 78 91
50 99 125 47 14 16 358 18 16 260 306 286 353 356 nan nan nan nan nan nan 8 7 335 336 300 275 nan nan nan nan nan nan nan nan nan nan nan 144 155 157 137 204 248 282 66 102 nan nan nan
132 211 124 20 10 8 355 21 357 289 208 202 276 359 15 9 18 6 nan nan 8 341 337 325 319 nan nan nan nan nan nan nan nan nan nan 152 156 144 157 149 136 220 213 210 185 158 nan nan nan
nan nan nan 35 14 2 5 14 6 nan nan nan nan 124 26 18 28 355 nan nan nan 339 322 333 334 nan nan nan nan nan nan nan nan nan nan 160 158 149 147 158 180 249 211 201 211 178 26 175 109
nan nan nan 30 1 5 349 26 nan nan 352 nan 239 nan 142 29 nan nan nan nan nan nan 342 345 325 277 nan nan nan nan nan nan nan nan 172 145 158 153 164 166 210 210 180 224 204 178 282 218 288
nan nan nan nan 344 331 3 19 34 17 nan 11 nan nan 34 nan nan nan nan nan nan nan nan nan 331 292 nan 216 218 nan 192 177 183 195 152 155 156 179 206 192 190 205 200 217 274 193 186 155 141
nan nan nan 346 317 319 18 nan 30 19 37 nan nan nan 36 nan nan nan nan nan nan nan nan nan 334 nan nan 223 213 207 222 207 222 192 169 165 161 200 206 211 197 221 233 186 195 168 85 300 176
nan nan nan 323 321 342 346 nan nan 63 31 38 54 102 nan nan nan nan nan nan nan nan nan nan 342 353 nan nan nan 192 210 nan 191 165 175 171 165 193 210 239 228 169 242 176 171 185 6 283 226
nan nan nan nan nan nan nan nan nan nan 34 34 nan nan nan 356 359 336 330 347 nan nan nan nan nan nan nan nan nan nan nan nan 153 175 nan 160 161 187 212 251 267 93 289 190 162 195 203 211 153
nan nan nan nan nan 23 nan nan nan nan nan nan nan nan nan 27 10 343 341 337 350 nan nan nan nan nan nan nan nan 236 nan nan nan 180 184 172 170 178 206 267 298 161 160 123 188 173 206 200 172
nan nan nan nan nan nan nan nan nan nan nan nan nan 39 57 48 49 8 349 338 347 326 nan 339 344 nan nan nan nan 239 nan nan 199 217 208 200 194 189 180 195 195 315 268 166 223 280 115 130 173
nan nan nan nan nan nan nan nan nan nan nan nan nan nan 11 21 36 355 356 351 356 351 351 326 339 4 nan nan nan 9 234 225 191 206 235 231 191 191 192 206 173 209 237 193 175 227 191 138 163
nan nan nan nan nan nan nan nan nan nan 40 30 20 1 358 2 15 19 5 353 334 340 353 336 338 351 346 345 330 256 207 203 193 215 198 177 184 185 202 202 162 241 230 211 162 194 217 164 153
nan nan nan nan nan nan nan nan nan nan 24 nan 342 348 351 345 2 7 6 5 360 339 344 352 328 332 nan 339 320 266 231 192 195 170 193 205 189 nan 188 218 220 249 230 205 184 191 213 230 187
nan nan nan nan nan nan nan nan 345 343 351 nan nan 1 349 344 330 6 5 3 2 3 352 346 333 334 nan nan 311 304 275 250 188 184 191 197 199 198 215 234 211 237 227 214 195 200 214 243 217
nan nan nan nan nan nan nan nan nan 349 342 nan nan 347 345 343 347 340 350 2 360 355 350 343 335 329 312 nan 309 316 289 260 244 200 197 207 199 206 220 243 222 224 223 226 220 210 217 240 233
nan nan nan nan nan nan nan nan nan 334 325 nan 317 334 330 340 343 351 346 334 349 342 331 333 324 317 304 297 292 311 295 292 270 217 204 210 223 228 235 242 229 242 238 227 234 241 236 233 236